Home   Weather   Zwolle   Past weeks

Flag for Netherlands Past Weather in Zwolle, Netherlands — Yesterday and Last 2 Weeks

Now
64 °F

Partly sunny.


Feels Like: 64 °F
Forecast: 61 / 67 °F
Wind: 16 mph from West

Location: Amsterdam Schiphol Airport

Current Time: Sep 28, 2016 at 8:55:41 AM

Latest Report: Sep 28, 2016 at 7:55 AM


Visibility: N/A

Pressure: 30.18 "Hg

Humidity: 83%

Dew Point: 59 °F

Location of ZwolleLocation

Past Weather in Zwolle — Graph

°F

Zwolle Temperature Yesterday

Maximum temperature yesterday: 70 °F (at 3:25 PM)
Minimum temperature yesterday: 46 °F (at 6:55 AM)
Average temperature yesterday: 58 °F

High & Low Weather Summary for the Past Weeks

 TemperatureHumidityPressure
High88 °F (Sep 14, 3:25 PM)100% (Sep 16, 4:25 AM)30.27 "Hg (Sep 16, 4:25 AM)
Low46 °F (Sep 27, 6:55 AM)40% (Sep 14, 5:25 PM)29.77 "Hg (Sep 15, 4:55 PM)
Average63 °F75%30.06 "Hg
* Reported Sep 13 7:25 AM — Sep 28 7:55 AM, Zwolle, Weather by CustomWeather, © 2016

Note: Actual official high and low records may vary slightly from our data, if they occured in-between our weather recording intervals... More about our weather records

Advertising

Zwolle Weather History for the Previous 24 Hours

Scroll right to see more
 ConditionsComfort  
Time TempWeatherWind HumidityBarometerVisibility
7:55 AM
Wed, Sep 28
64 °FPartly sunny.16 mph83%30.18 "HgN/A
7:25 AM64 °FPassing clouds.16 mph83%30.18 "HgN/A
6:55 AM64 °FPartly cloudy.14 mph88%30.18 "HgN/A
6:25 AM64 °FPassing clouds.15 mph88%30.18 "HgN/A
5:55 AM64 °FPartly cloudy.10 mph88%30.18 "HgN/A
5:25 AM63 °FPartly cloudy.10 mph94%30.18 "HgN/A
4:55 AM63 °FPartly cloudy.12 mph94%30.18 "HgN/A
4:25 AM63 °FPassing clouds.13 mph94%30.18 "HgN/A
3:55 AM63 °FPartly cloudy.13 mph94%30.18 "HgN/A
3:25 AM61 °FPartly cloudy.15 mph94%30.18 "HgN/A
2:55 AM61 °FPartly cloudy.14 mph94%30.18 "HgN/A
1:55 AM61 °FPartly cloudy.15 mph94%30.21 "Hg6 mi
1:25 AM61 °FPassing clouds.13 mph83%30.21 "Hg5 mi
12:55 AM63 °FPassing clouds.12 mph73%30.21 "Hg4 mi
12:25 AM63 °FScattered showers. Passing clouds.10 mph68%30.21 "HgN/A
11:55 PM
Tue, Sep 27
63 °FPartly cloudy.9 mph64%30.24 "HgN/A
11:25 PM63 °FPassing clouds.8 mph64%30.21 "HgN/A
10:55 PM61 °FPassing clouds.10 mph63%30.21 "HgN/A
10:25 PM61 °FPassing clouds.12 mph68%30.21 "HgN/A
9:55 PM63 °FPassing clouds.13 mph64%30.21 "HgN/A
9:25 PM61 °FPassing clouds.12 mph68%30.24 "HgN/A
8:55 PM61 °FClear.8 mph68%30.24 "Hg10 mi
8:25 PM61 °FClear.8 mph68%30.24 "Hg10 mi
7:55 PM61 °FClear.7 mph68%30.24 "Hg10 mi
7:25 PM63 °FSunny.9 mph59%30.24 "Hg10 mi
6:55 PM64 °FSunny.9 mph56%30.24 "Hg10 mi
6:25 PM64 °FSunny.10 mph56%30.24 "Hg10 mi
5:55 PM64 °FSunny.12 mph56%30.24 "Hg10 mi
5:25 PM68 °FSunny.13 mph49%30.24 "Hg10 mi
4:55 PM68 °FPassing clouds.13 mph49%30.24 "HgN/A
4:25 PM70 °FPassing clouds.13 mph50%30.24 "HgN/A
3:55 PM68 °FPassing clouds.13 mph49%30.24 "HgN/A
3:25 PM70 °FPassing clouds.13 mph43%30.24 "HgN/A
2:55 PM68 °FPassing clouds.12 mph49%30.27 "HgN/A
2:25 PM68 °FPassing clouds.12 mph46%30.27 "HgN/A
1:55 PM68 °FPassing clouds.12 mph49%30.27 "HgN/A
1:25 PM66 °FSunny.13 mph52%30.27 "Hg10 mi
12:55 PM66 °FSunny.13 mph52%30.27 "Hg10 mi
12:25 PM64 °FPassing clouds.12 mph60%30.27 "HgN/A
11:55 AM64 °FPassing clouds.9 mph68%30.27 "HgN/A
11:25 AM63 °FPassing clouds.9 mph68%30.27 "HgN/A
10:55 AM63 °FPassing clouds.8 mph68%30.27 "HgN/A
10:25 AM61 °FPassing clouds.6 mph72%30.27 "HgN/A
9:55 AM57 °FPassing clouds.5 mph82%30.27 "HgN/A
9:25 AM55 °FPassing clouds.3 mph88%30.27 "HgN/A
8:55 AM50 °FPassing clouds.3 mph100%30.27 "HgN/A
8:25 AM48 °FPassing clouds.5 mph100%30.27 "HgN/A
Weather by CustomWeather, © 2016

See weather overviewHow to use our weather pages